Regional Weather Roundup
Issued by NWS

Home | Current Version | Previous Version | Graphics & Text | Print | Product List | Glossary On
Versions: 1 2 3 4 5 6 7 8 9 10 11 12 13 14 15 16 17 18 19 20 21 22 23 24 25 26 27 28 29 30 31 32 33 34 35 36 37 38 39 40 41 42 43 44 45 46 47 48 49 50
000
ASUS43 KOAX 070302
RWRNE

WEATHER ROUNDUP FOR NEBRASKA
NATIONAL WEATHER SERVICE OMAHA NE
1000 PM CDT WED MAY 06 2015

NOTES: SATELLITE DATA IS BEING USED TO AUGMENT CLOUD COVER ABOVE
       12000 FEET.
       "FAIR" INDICATES FEW OR NO CLOUDS BELOW 12,000 FEET WITH NO
       SIGNIFICANT WEATHER AND/OR OBSTRUCTIONS TO VISIBILITY.

  * THESE STATIONS DO NOT REPORT WEATHER SUCH AS RAIN...SNOW OR FOG.

NEZ001>004-019>022-054>056-070400-
NEBRASKA PANHANDLE

CITY           SKY/WX    TMP DP  RH WIND       PRES   REMARKS
SCOTTSBLUFF    LGT RAIN  50  45  83 NW23G31   29.74R
ALLIANCE       CLOUDY    52  50  93 N14G22    29.68R
CHADRON        CLOUDY    52  50  93 W10       29.70R
SIDNEY         PTCLDY    53  51  93 NW20G26   29.72R
$$

NEZ057>060-069>072-079>082-070400-
SOUTHWEST NEBRASKA

CITY           SKY/WX    TMP DP  RH WIND       PRES   REMARKS
NORTH PLATTE   CLOUDY    61  54  77 CALM      29.61R
IMPERIAL       PTCLDY    57  54  89 W8        29.64R
MCCOOK         MOCLDY    62  55  77 SW6       29.61R
$$

NEZ005>010-023>029-035>040-094-070400-
NORTH CENTRAL NEBRASKA

CITY           SKY/WX    TMP DP  RH WIND       PRES   REMARKS
VALENTINE      CLOUDY    59  57  93 E6        29.61R
BROKEN BOW     CLOUDY    59  57  93 E6        29.61R
ORD            MOCLDY    59  57  93 SE7       29.60R
$$

NEZ041-046>049-061>064-073>077-083>087-070400-
SOUTH CENTRAL NEBRASKA

CITY           SKY/WX    TMP DP  RH WIND       PRES   REMARKS
GRAND ISLAND   CLOUDY    60  57  89 SE10      29.63S
HASTINGS       LGT RAIN  60  58  92 SE15      29.62R
KEARNEY *      CLOUDY    59  55  88 E7        29.63R
$$

NEZ011>018-030>034-042>045-070400-
NORTHEAST NEBRASKA

CITY           SKY/WX    TMP DP  RH WIND       PRES   REMARKS
NORFOLK        LGT RAIN  62  58  86 SE16G24   29.64S
COLUMBUS *     CLOUDY    61  55  82 SE16G23   29.68S
TEKAMAH        LGT RAIN  65  61  87 SW3       29.75R
$$

NEZ050>053-065>068-078-088>093-070400-
SOUTHEAST NEBRASKA

CITY           SKY/WX    TMP DP  RH WIND       PRES   REMARKS
LINCOLN        RAIN      61  60  97 E6        29.73S VSB 1
OMAHA EPPLEY   TSTM      67  60  78 SE21      29.75S
FALLS CITY     CLOUDY    68  61  78 SE16G26   29.77R
$$

NEZ044-045-051>053-067-070400-
OMAHA AREA

CITY           SKY/WX    TMP DP  RH WIND       PRES   REMARKS
OMAHA EPPLEY   TSTM      67  60  78 SE21      29.75S
OFFUTT AFB     TSTM      66  61  82 SE16      29.75R
$$


USA.gov is the U.S. government's official web portal to all federal, state and local government web resources and services.